Location: Chevoux
(46.3801°N, 4.9476°E)
Time: 04:47:12
(UTC+00:00)

Envisat - Pass Details

Date: 01 December 2021
Orbit: 764 x 766 km, 98.2° (Epoch: 16 January)

Event Time Altitude Azimuth Distance (km) Brightness Sun altitude
Rises 04:03:16 0° 21° (NNE) 3,244 6.5 -30.2°
Reaches altitude 10° 04:05:46 10° 30° (NNE) 2,313 5.8 -29.8°
Maximum altitude 04:10:26 35° 96° (E) 1,215 4.5 -29.0°
Drops below altitude 10° 04:15:04 10° 162° (SSE) 2,296 5.7 -28.2°
Sets 04:17:32 0° 171° (S) 3,216 6.4 -27.8°
